SL-18 DEB, 22567

Orbit data source: Space-Track

SL-18 DEB, 22567 is space debris in LEO originally from a launch on Thu, 25 Mar 1993 UTC launched from the Plesetsk Missile And Space Complex (PKMTR). Debris objects in space refer to the collection of defunct objects orbiting the Earth. Examples of debris include non-operational satellites, rocket bodies, and fragments generated from explosions, collisions, or faulty payload assembly.

Loading next visibility...
Identifier
22567, 1993-014C
Orbit
LEO
Country
Flag of CISCIS
Related business
Manufacturer
Kompleks-MIT
Mission
Spacecraft
Bus & Motor
DS, Unknown motor
Mass
Unknown
Launch date (UTC)
1993-03-25 (33 years ago)
Launch vehicle
Unknown
Launch site
Plesetsk Missile And Space Complex (PKMTR)
Object type
Payload
Rocket body
Debris
Shape & HBR
Unknown shape, 0.1 m
Radar Cross Section
Small (<0.1 m²)

Expand to show TLE details & history
Last TLE update: 9 hours ago

TLE from 9 hours ago
0 SL-18 DEB
1 22567U 93014C   25294.58768714  .00002543  00000-0  66045-3 0  9995
2 22567  75.7493 134.5051 0145395 357.3187  60.7709 14.43844806699543
Epoch: 2025-10-21T14:06Z
TLE epoch observation values (Epoch: 2025-10-21T14:06:16.168Z)
Latitude
56.78539°
Longitude
-84.64113°
Altitude
705.644 km
Speed
7.535 km/s
True Right ascension
10h 28m 47s
True Declination
56° 37' 35"
Sunlit
Object was in daylight at epoch
Visualization orbit readout
Latitude
Unknown
Longitude
Unknown
Altitude
Unknown
Speed
Unknown
Apparent Right ascension
Unknown
Apparent Declination
Unknown
Sunlit
N/A
Visualization observer readout
Local Sidereal Time
17:56:18
Azimuth
Unknown
Elevation
Unknown
Doppler factor
Unknown
Orbital elements
Apogee altitude
846.841 km
Perigee altitude
639.756 km
Semi-major axis
7,121.436 km
Eccentricity
0.01454
Inclination
75.7493°
RAAN
134.5051°
Arg. of periapsis
357.3187°
True anomaly
62.23772°
Mean anomaly
60.7709°
Eccentric anomaly
61.50302°
Mean motion
3.61154 °/min
Orbital period
99.68 mins
BSTAR
0.00066045
Loading maneuver chart data...
Computing Atmospheric mass density...
Loading historical data...
Loading historical data...
Loading historical data...
Loading historical data...
Loading historical data...
Loading historical data...
Loading historical data...

Documentation

Showing up to 5 results
|